CGMPW CYQM-CYGR

Flight info

Callsign CGMPW
Flight time N/A
Altitude 12000
Route DCT
Aircraft PC24/L-VGD/A

Departure

Time 2026-04-26 10:08
Airport Greater Moncton Roméo LeBlanc International Airport (CYQM)

Arrival

Time N/A
Airport Îles-de-la-Madeleine Airport (CYGR)
Time Latitude Longitude Altitude Speed Heading
2026-04-26 10:07 46.10621 -64.69404 205 ft 10 kts 42°
2026-04-26 10:08 46.10916 -64.69026 200 ft 102 kts 41°
2026-04-26 10:08 46.11601 -64.68131 499 ft 146 kts 41°
2026-04-26 10:08 46.12288 -64.67326 2006 ft 112 kts 23°
2026-04-26 10:08 46.12744 -64.66968 2722 ft 123 kts 37°
2026-04-26 10:09 46.13416 -64.65914 3443 ft 161 kts 43°
2026-04-26 10:09 46.14258 -64.64603 4198 ft 181 kts 43°
2026-04-26 10:09 46.14998 -64.63421 4817 ft 135 kts 43°
2026-04-26 10:09 46.15559 -64.62487 5146 ft 131 kts 43°
2026-04-26 10:10 46.16187 -64.61456 5736 ft 148 kts 43°
2026-04-26 10:10 46.16950 -64.60242 6468 ft 178 kts 43°
2026-04-26 10:10 46.17839 -64.58855 7160 ft 195 kts 43°
2026-04-26 10:10 46.18780 -64.57387 7806 ft 203 kts 43°
2026-04-26 10:11 46.19775 -64.55838 7998 ft 213 kts 43°
2026-04-26 10:11 46.20812 -64.54234 8006 ft 232 kts 43°
2026-04-26 10:11 46.21989 -64.52434 8006 ft 261 kts 43°
2026-04-26 10:11 46.23293 -64.50466 8009 ft 283 kts 43°
2026-04-26 10:12 46.24679 -64.48382 8004 ft 291 kts 43°
2026-04-26 10:12 46.26082 -64.46275 8169 ft 287 kts 43°
2026-04-26 10:12 46.27477 -64.44177 8958 ft 295 kts 43°
2026-04-26 10:12 46.28918 -64.42019 9761 ft 302 kts 43°
2026-04-26 10:13 46.30394 -64.39812 10515 ft 307 kts 43°
2026-04-26 10:13 46.31890 -64.37583 11259 ft 310 kts 43°
2026-04-26 10:13 46.33402 -64.35325 12023 ft 312 kts 43°
2026-04-26 10:13 46.34905 -64.33081 12802 ft 316 kts 43°
2026-04-26 10:14 46.36449 -64.30767 13609 ft 322 kts 43°
2026-04-26 10:14 46.38008 -64.28409 14364 ft 327 kts 43°
2026-04-26 10:14 46.39586 -64.26004 15098 ft 330 kts 43°
2026-04-26 10:14 46.41168 -64.23585 15846 ft 331 kts 43°
2026-04-26 10:15 46.42751 -64.21154 16612 ft 336 kts 43°
2026-04-26 10:15 46.44363 -64.18669 17401 ft 339 kts 43°
2026-04-26 10:15 46.45991 -64.16158 18206 ft 342 kts 43°
2026-04-26 10:15 46.47865 -64.14147 18925 ft 339 kts 25°
2026-04-26 10:16 46.50038 -64.12791 19653 ft 341 kts 19°
2026-04-26 10:16 46.52246 -64.11481 20419 ft 344 kts 21°
2026-04-26 10:16 46.54392 -64.09905 21180 ft 347 kts 27°
2026-04-26 10:16 46.56465 -64.08089 21964 ft 348 kts 28°
2026-04-26 10:17 46.58573 -64.06324 22776 ft 347 kts 26°
2026-04-26 10:17 46.60708 -64.04669 23601 ft 346 kts 25°
2026-04-26 10:17 46.62819 -64.03002 24313 ft 345 kts 27°
2026-04-26 10:17 46.64893 -64.01313 25020 ft 343 kts 27°
2026-04-26 10:18 46.67085 -64.00076 25721 ft 338 kts
2026-04-26 10:18 46.69404 -64.00402 26463 ft 335 kts 346°
2026-04-26 10:18 46.71586 -64.01563 27258 ft 332 kts 340°
2026-04-26 10:18 46.73662 -64.03018 28037 ft 331 kts 329°
2026-04-26 10:19 46.75452 -64.05085 28836 ft 321 kts 334°
2026-04-26 10:19 46.77474 -64.05850 29648 ft 293 kts
2026-04-26 10:19 46.79347 -64.04954 30452 ft 282 kts 36°
2026-04-26 10:19 46.80584 -64.02803 31208 ft 274 kts 58°
2026-04-26 10:20 46.81477 -64.00385 31965 ft 266 kts 59°
2026-04-26 10:20 46.82388 -63.98092 32717 ft 256 kts 55°
2026-04-26 10:20 46.83392 -63.96009 33475 ft 246 kts 49°
2026-04-26 10:20 46.84489 -63.94208 34216 ft 234 kts 41°
2026-04-26 10:21 46.85734 -63.92777 34786 ft 225 kts 31°
2026-04-26 10:21 46.87082 -63.91602 35100 ft 228 kts 28°
2026-04-26 10:21 46.88496 -63.90370 35150 ft 245 kts 30°
2026-04-26 10:21 46.89996 -63.88994 35160 ft 262 kts 31°
2026-04-26 10:22 46.91584 -63.87522 35168 ft 279 kts 32°
2026-04-26 10:22 46.93270 -63.85964 35163 ft 294 kts 32°
2026-04-26 10:22 46.95023 -63.84352 35156 ft 308 kts 32°
2026-04-26 10:22 46.96879 -63.82645 35152 ft 321 kts 32°
2026-04-26 10:23 46.98811 -63.80863 35149 ft 334 kts 32°
2026-04-26 10:23 47.00816 -63.79012 35146 ft 345 kts 32°
2026-04-26 10:23 47.04995 -63.75149 35149 ft 364 kts 32°
2026-04-26 10:24 47.09380 -63.71088 35136 ft 379 kts 32°
2026-04-26 10:24 47.13859 -63.66931 35122 ft 387 kts 32°
2026-04-26 10:25 47.18475 -63.62639 35126 ft 394 kts 32°
2026-04-26 10:25 47.23110 -63.58320 35126 ft 394 kts 32°
2026-04-26 10:26 47.27748 -63.53990 35127 ft 394 kts 32°
2026-04-26 10:26 47.32282 -63.49748 35122 ft 383 kts 33°
2026-04-26 10:27 47.36821 -63.45503 35118 ft 387 kts 31°
2026-04-26 10:27 47.39313 -63.43966 35115 ft 389 kts 18°
2026-04-26 10:27 47.41953 -63.43053 35123 ft 391 kts 13°
2026-04-26 10:28 47.47271 -63.41294 35130 ft 390 kts 18°
2026-04-26 10:28 47.52308 -63.38757 35125 ft 378 kts 20°
2026-04-26 10:29 47.57404 -63.36544 35118 ft 383 kts 19°
2026-04-26 10:29 47.62488 -63.34192 35124 ft 380 kts 20°
2026-04-26 10:30 47.67507 -63.31915 35120 ft 378 kts 19°
2026-04-26 10:30 47.72512 -63.29626 35139 ft 372 kts 20°
2026-04-26 10:31 47.77488 -63.27345 35128 ft 377 kts 20°
2026-04-26 10:31 47.82488 -63.25053 35136 ft 375 kts 20°
2026-04-26 10:32 47.87465 -63.22765 35138 ft 372 kts 20°
2026-04-26 10:32 47.92398 -63.20491 35137 ft 374 kts 20°
2026-04-26 10:33 47.97388 -63.18188 35137 ft 376 kts 20°
2026-04-26 10:33 48.02406 -63.15867 35140 ft 376 kts 20°
2026-04-26 10:34 48.07392 -63.13557 35137 ft 374 kts 20°
2026-04-26 10:34 48.12315 -63.11270 35130 ft 372 kts 20°
2026-04-26 10:35 48.17258 -63.08968 35136 ft 372 kts 20°
2026-04-26 10:35 48.22227 -63.06651 35140 ft 375 kts 20°
2026-04-26 10:36 48.27209 -63.04324 35146 ft 374 kts 20°
2026-04-26 10:36 48.32157 -63.02004 35137 ft 371 kts 20°
2026-04-26 10:37 48.37062 -62.99704 35124 ft 372 kts 20°
2026-04-26 10:37 48.42024 -62.97371 35127 ft 375 kts 20°
2026-04-26 10:38 48.47012 -62.95022 35132 ft 375 kts 20°
2026-04-26 10:38 48.51977 -62.92678 35129 ft 373 kts 20°
2026-04-26 10:39 48.56911 -62.90344 35126 ft 371 kts 20°
2026-04-26 10:39 48.61842 -62.88008 35127 ft 373 kts 20°
2026-04-26 10:40 48.66814 -62.85647 35133 ft 375 kts 20°
2026-04-26 10:40 48.71760 -62.83290 35133 ft 374 kts 20°
2026-04-26 10:41 48.76718 -62.80927 35130 ft 372 kts 20°
2026-04-26 10:41 48.81638 -62.78575 35111 ft 371 kts 20°
2026-04-26 10:42 48.86576 -62.76210 35124 ft 374 kts 21°
2026-04-26 10:42 48.91558 -62.73821 35125 ft 374 kts 21°
2026-04-26 10:43 48.96482 -62.71453 35124 ft 372 kts 21°
2026-04-26 10:43 49.01408 -62.69079 35120 ft 370 kts 21°
2026-04-26 10:44 49.06338 -62.66697 35123 ft 372 kts 21°
2026-04-26 10:44 49.11268 -62.64312 35126 ft 374 kts 21°
2026-04-26 10:45 49.16241 -62.61901 35125 ft 374 kts 21°
2026-04-26 10:45 49.21186 -62.59497 35138 ft 372 kts 21°
2026-04-26 10:46 49.26087 -62.57111 35132 ft 370 kts 21°
2026-04-26 10:46 49.30986 -62.54720 35131 ft 369 kts 21°
2026-04-26 10:47 49.35900 -62.52317 35136 ft 371 kts 21°
2026-04-26 10:47 49.40850 -62.49891 35138 ft 373 kts 21°
2026-04-26 10:48 49.45754 -62.47484 35139 ft 370 kts 21°
2026-04-26 10:48 49.50651 -62.45072 35140 ft 370 kts 21°
2026-04-26 10:49 49.55572 -62.42646 35149 ft 372 kts 21°
2026-04-26 10:49 49.60510 -62.40206 35152 ft 373 kts 21°
2026-04-26 10:50 49.64613 -62.38175 35148 ft 371 kts 22°
2026-04-26 10:50 49.70300 -62.35354 35141 ft 367 kts 22°
2026-04-26 10:51 49.77649 -62.31695 35140 ft 373 kts 22°
2026-04-26 10:52 49.82584 -62.29235 35137 ft 372 kts 22°
2026-04-26 10:52 49.87507 -62.26773 35146 ft 370 kts 22°
2026-04-26 10:53 49.92369 -62.24337 35148 ft 367 kts 22°
2026-04-26 10:53 49.97228 -62.21894 35143 ft 371 kts 22°
2026-04-26 10:54 50.04559 -62.18206 35116 ft 367 kts 22°
2026-04-26 10:54 50.09417 -62.15753 35114 ft 366 kts 22°
2026-04-26 10:55 50.14266 -62.13299 35100 ft 369 kts 22°
2026-04-26 10:55 50.18342 -62.11233 35102 ft 371 kts 22°
2026-04-26 10:56 50.24069 -62.08326 35102 ft 368 kts 23°
2026-04-26 10:56 50.28906 -62.05862 35102 ft 366 kts 23°
2026-04-26 10:57 50.33676 -62.03436 35083 ft 352 kts 24°
2026-04-26 10:57 50.37582 -62.01426 35086 ft 357 kts 24°
2026-04-26 10:58 50.42333 -61.98999 35092 ft 358 kts 24°
2026-04-26 10:58 50.47078 -61.96561 35090 ft 358 kts 24°
2026-04-26 10:59 50.51804 -61.94130 35085 ft 357 kts 24°
2026-04-26 10:59 50.56462 -61.91734 35094 ft 349 kts 24°
2026-04-26 11:00 50.61087 -61.89338 35088 ft 352 kts 24°
2026-04-26 11:00 50.65748 -61.86928 35090 ft 353 kts 25°
2026-04-26 11:01 50.70430 -61.84497 35092 ft 356 kts 25°
2026-04-26 11:01 50.75127 -61.82059 35092 ft 354 kts 25°
2026-04-26 11:02 50.79756 -61.79650 35104 ft 346 kts 24°
2026-04-26 11:02 50.84344 -61.77248 35104 ft 350 kts 24°
2026-04-26 11:03 50.88986 -61.74826 35106 ft 349 kts 24°
2026-04-26 11:03 50.93555 -61.72429 35103 ft 347 kts 25°
2026-04-26 11:04 50.98131 -61.70024 35101 ft 348 kts 25°
2026-04-26 11:04 51.02729 -61.67606 35118 ft 346 kts 24°
2026-04-26 11:05 51.07291 -61.65197 35119 ft 347 kts 24°
2026-04-26 11:05 51.11891 -61.62768 35122 ft 348 kts 24°
2026-04-26 11:06 51.16474 -61.60341 35123 ft 346 kts 24°
2026-04-26 11:06 51.21028 -61.57923 35121 ft 345 kts 24°
2026-04-26 11:07 51.25591 -61.55497 34733 ft 343 kts 24°
2026-04-26 11:07 51.27815 -61.54320 34306 ft 330 kts 25°
2026-04-26 11:07 51.29920 -61.53202 34127 ft 313 kts 26°
2026-04-26 11:08 51.34078 -61.50960 34126 ft 320 kts 26°
2026-04-26 11:08 51.38335 -61.48692 34151 ft 324 kts 25°
2026-04-26 11:09 51.42629 -61.46389 34154 ft 325 kts 26°
2026-04-26 11:09 51.46912 -61.44089 34145 ft 324 kts 25°
2026-04-26 11:10 51.51176 -61.41793 34149 ft 323 kts 25°
2026-04-26 11:10 51.55404 -61.39514 34148 ft 322 kts 25°
2026-04-26 11:11 51.59671 -61.37204 34152 ft 327 kts 25°
2026-04-26 11:11 51.64008 -61.34859 34159 ft 329 kts 25°
2026-04-26 11:12 51.68324 -61.32518 34172 ft 329 kts 25°
2026-04-26 11:12 51.72655 -61.30164 34171 ft 327 kts 25°
2026-04-26 11:13 51.76992 -61.27798 33722 ft 331 kts 25°
2026-04-26 11:13 51.79177 -61.26608 33296 ft 330 kts 25°
2026-04-26 11:13 51.81359 -61.25418 32868 ft 332 kts 25°
2026-04-26 11:14 51.83556 -61.24214 32436 ft 335 kts 24°
2026-04-26 11:14 51.85773 -61.22999 32001 ft 339 kts 24°
2026-04-26 11:14 51.88023 -61.21769 31562 ft 343 kts 24°
2026-04-26 11:14 51.90295 -61.20522 31115 ft 347 kts 24°
2026-04-26 11:15 51.92570 -61.19274 30668 ft 351 kts 23°
2026-04-26 11:15 51.94892 -61.17997 30201 ft 352 kts 23°
2026-04-26 11:15 51.97213 -61.16723 29715 ft 352 kts 23°
2026-04-26 11:15 51.99540 -61.15440 29254 ft 354 kts 22°
2026-04-26 11:16 52.01888 -61.14144 28787 ft 358 kts 22°
2026-04-26 11:16 52.04259 -61.12835 28318 ft 362 kts 22°
2026-04-26 11:16 52.06654 -61.11513 27849 ft 364 kts 22°
2026-04-26 11:16 52.09047 -61.10190 27372 ft 361 kts 21°
2026-04-26 11:17 52.11415 -61.08880 26902 ft 358 kts 21°
2026-04-26 11:17 52.13768 -61.07574 26429 ft 356 kts 21°
2026-04-26 11:17 52.16110 -61.06273 25979 ft 354 kts 21°
2026-04-26 11:17 52.18437 -61.04980 25513 ft 352 kts 21°
2026-04-26 11:18 52.20753 -61.03692 25052 ft 351 kts 20°
2026-04-26 11:18 52.23059 -61.02407 24596 ft 350 kts 20°
2026-04-26 11:18 52.25366 -61.01121 24138 ft 350 kts 20°
2026-04-26 11:18 52.27666 -60.99837 23665 ft 350 kts 20°
2026-04-26 11:19 52.29963 -60.98554 23182 ft 347 kts 20°
2026-04-26 11:19 52.32209 -60.97296 22730 ft 343 kts 20°
2026-04-26 11:19 52.34397 -60.95770 22282 ft 340 kts 27°
2026-04-26 11:19 52.36486 -60.93956 21837 ft 340 kts 27°
2026-04-26 11:20 52.38594 -60.92176 21387 ft 340 kts 27°
2026-04-26 11:20 52.39982 -60.90999 21091 ft 338 kts 27°
2026-04-26 11:20 52.42758 -60.88618 20497 ft 335 kts 27°
2026-04-26 11:20 52.44819 -60.86850 20059 ft 333 kts 27°
2026-04-26 11:21 52.46847 -60.85109 19628 ft 332 kts 26°
2026-04-26 11:21 52.48890 -60.83359 19193 ft 330 kts 26°
2026-04-26 11:21 52.50922 -60.81610 18760 ft 329 kts 26°
2026-04-26 11:21 52.52956 -60.79862 18136 ft 330 kts 26°
2026-04-26 11:22 52.54960 -60.78132 17625 ft 320 kts 26°
2026-04-26 11:22 52.56933 -60.76435 17201 ft 320 kts 26°
2026-04-26 11:22 52.58904 -60.74732 16780 ft 319 kts 26°
2026-04-26 11:22 52.60841 -60.73058 16375 ft 318 kts 26°
2026-04-26 11:23 52.62801 -60.71364 15957 ft 317 kts 26°
2026-04-26 11:23 52.64745 -60.69680 15533 ft 315 kts 26°
2026-04-26 11:23 52.66683 -60.68003 15119 ft 313 kts 26°
2026-04-26 11:23 52.68607 -60.66330 14706 ft 312 kts 26°
2026-04-26 11:24 52.70529 -60.64664 14301 ft 310 kts 26°
2026-04-26 11:24 52.72437 -60.63004 13878 ft 309 kts 26°
2026-04-26 11:24 52.74331 -60.61358 13464 ft 307 kts 26°
2026-04-26 11:24 52.76214 -60.59717 13060 ft 305 kts 26°
2026-04-26 11:25 52.78085 -60.58086 12657 ft 303 kts 26°
2026-04-26 11:25 52.79928 -60.56478 12264 ft 302 kts 26°
2026-04-26 11:25 52.81779 -60.54861 11863 ft 300 kts 26°
2026-04-26 11:25 52.83616 -60.53255 11479 ft 298 kts 26°
2026-04-26 11:26 52.85442 -60.51655 11079 ft 295 kts 26°
2026-04-26 11:26 52.87254 -60.50070 10689 ft 293 kts 26°
2026-04-26 11:26 52.89052 -60.48491 10303 ft 291 kts 26°
2026-04-26 11:26 52.90835 -60.46929 9901 ft 289 kts 26°
2026-04-26 11:27 52.92601 -60.45375 9512 ft 286 kts 26°
2026-04-26 11:27 52.94353 -60.43838 9133 ft 283 kts 26°
2026-04-26 11:27 52.96064 -60.42329 8764 ft 281 kts 26°
2026-04-26 11:27 52.97793 -60.40808 8392 ft 279 kts 26°
2026-04-26 11:28 52.99503 -60.39298 8024 ft 278 kts 26°
2026-04-26 11:28 53.01206 -60.37797 7659 ft 276 kts 26°
2026-04-26 11:28 53.02899 -60.36299 7295 ft 274 kts 26°
2026-04-26 11:28 53.04574 -60.34822 6933 ft 271 kts 26°
2026-04-26 11:29 53.06221 -60.33362 6570 ft 257 kts 26°
2026-04-26 11:29 53.07670 -60.32071 6201 ft 219 kts 26°
2026-04-26 11:29 53.08926 -60.30961 5946 ft 197 kts 26°
2026-04-26 11:29 53.10108 -60.29917 5748 ft 184 kts 26°
2026-04-26 11:30 53.11128 -60.28968 5504 ft 154 kts 30°
2026-04-26 11:30 53.11680 -60.28292 5371 ft 139 kts 34°
2026-04-26 11:30 53.12575 -60.26933 5143 ft 127 kts 37°
2026-04-26 11:30 53.13213 -60.25951 4985 ft 123 kts 37°
2026-04-26 11:31 53.13840 -60.24982 4823 ft 123 kts 38°
2026-04-26 11:31 53.14461 -60.24013 4661 ft 122 kts 37°
2026-04-26 11:31 53.15083 -60.23045 4501 ft 124 kts 38°
2026-04-26 11:31 53.15718 -60.22054 4308 ft 126 kts 38°
2026-04-26 11:32 53.16332 -60.21092 4101 ft 115 kts 38°
2026-04-26 11:32 53.16957 -60.20328 3948 ft 109 kts 25°
2026-04-26 11:32 53.17642 -60.19849 3817 ft 108 kts 16°
2026-04-26 11:32 53.18394 -60.19639 3680 ft 111 kts
2026-04-26 11:33 53.19169 -60.19732 3534 ft 113 kts 354°
2026-04-26 11:33 53.19925 -60.20139 3381 ft 115 kts 342°
2026-04-26 11:33 53.20572 -60.20804 3236 ft 108 kts 331°
2026-04-26 11:33 53.21113 -60.21689 3086 ft 109 kts 321°
2026-04-26 11:34 53.21623 -60.22584 2943 ft 105 kts 323°
2026-04-26 11:34 53.22124 -60.23479 2813 ft 106 kts 322°
2026-04-26 11:34 53.22630 -60.24375 2675 ft 104 kts 320°
2026-04-26 11:34 53.23139 -60.25269 2546 ft 109 kts 320°
2026-04-26 11:35 53.23644 -60.26175 2393 ft 106 kts 320°
2026-04-26 11:35 53.24149 -60.27072 2254 ft 106 kts 320°
2026-04-26 11:35 53.24651 -60.27964 2116 ft 105 kts 320°
2026-04-26 11:35 53.24979 -60.28551 2028 ft 104 kts 320°
2026-04-26 11:36 53.25641 -60.29728 1839 ft 105 kts 320°
2026-04-26 11:36 53.26143 -60.30620 1693 ft 105 kts 319°
2026-04-26 11:36 53.26655 -60.31530 1556 ft 109 kts 318°
2026-04-26 11:36 53.27164 -60.32443 1411 ft 106 kts 318°
2026-04-26 11:37 53.27667 -60.33340 1321 ft 105 kts 317°
2026-04-26 11:37 53.28185 -60.34262 1195 ft 107 kts 318°
2026-04-26 11:37 53.28681 -60.35146 1024 ft 111 kts 316°
2026-04-26 11:37 53.29199 -60.36077 884 ft 102 kts 317°
2026-04-26 11:38 53.29718 -60.36996 738 ft 111 kts 315°
2026-04-26 11:38 53.30214 -60.37885 572 ft 109 kts 316°
2026-04-26 11:38 53.30743 -60.38836 434 ft 107 kts 316°
2026-04-26 11:38 53.31254 -60.39744 291 ft 107 kts 315°
2026-04-26 11:39 53.31735 -60.40627 183 ft 101 kts 316°
2026-04-26 11:39 53.32167 -60.41371 152 ft 52 kts 310°
2026-04-26 11:39 53.32228 -60.41531 153 ft 8 kts 166°
2026-04-26 11:39 53.32140 -60.41361 152 ft 31 kts 127°
2026-04-26 11:40 53.31979 -60.41056 154 ft 34 kts 134°
2026-04-26 11:40 53.31819 -60.40778 154 ft 32 kts 140°
2026-04-26 11:40 53.31614 -60.40660 152 ft 31 kts 176°